Temperature
31 31 32 32 32 32 31 31 30 30 30 30 30 30 29 28 27 26 25 24 23 23 22 21 20 19 19 19 18 18 18 17 17 17 17 16 16 16 16 16 16 16 16 16
30 31 32 32 32 32 32 32 32 31 30 30 30 29 28 27 26 25 24 24 23 22 21 20 20 19 19 18 18 18 17 17 17 17 16 16 16 16 16 16 16 16 15 16
28 30 30 30 31 32 31 32 31 30 30 30 29 28 27 27 26 25 24 23 22 22 21 20 20 19 19 18 18 17 17 17 16 16 16 16 16 16 16 16 15 15 15 15
28 28 27 30 32 32 31 31 31 30 30 30 29 28 27 26 25 24 23 23 22 21 21 20 19 19 18 18 17 17 17 16 16 16 16 16 16 15 15 15 15 15 15 15
27 27 28 30 31 31 30 30 30 30 29 29 28 27 26 25 24 24 23 22 21 21 21 20 19 19 18 18 17 17 16 16 16 16 16 15 15 15 15 15 15 15 15 14
27 26 27 28 30 31 30 28 29 29 28 28 27 26 25 24 23 23 22 21 21 21 20 19 19 18 18 17 17 16 16 16 16 16 15 15 15 15 15 14 14 14 14 14
26 26 27 28 30 30 27 26 27 27 27 26 25 25 24 23 22 22 21 21 20 20 20 19 18 18 17 17 16 16 16 15 15 15 15 15 15 14 14 14 14 14 14 14
26 26 26 27 28 27 26 26 26 26 25 24 23 23 22 22 21 21 20 20 20 19 19 18 18 17 17 16 16 16 15 15 15 15 15 15 14 14 14 14 14 14 14 14
25 25 25 25 25 25 25 25 24 24 24 23 23 22 21 21 21 20 20 19 19 18 18 18 17 17 16 16 16 15 15 15 15 14 14 14 14 14 14 14 14 13 14 14
24 25 25 24 24 24 24 24 24 23 23 23 22 21 20 20 20 19 19 18 18 17 17 17 17 16 16 16 15 15 15 14 14 14 14 14 14 14 13 13 13 13 13 13
23 24 24 23 23 23 23 23 23 22 22 22 21 20 20 19 18 18 18 17 17 17 16 16 16 16 15 15 15 14 14 14 14 14 14 14 14 13 13 13 13 13 13 13
23 23 23 22 22 22 22 22 21 21 21 21 20 19 19 18 17 17 17 16 16 16 16 15 15 15 15 15 14 14 13 13 13 13 13 13 13 13 13 13 13 13 12 12
22 22 22 21 21 21 21 21 20 20 20 19 19 19 18 17 17 16 16 16 15 15 15 15 15 15 14 14 14 13 13 13 13 13 13 13 13 13 12 12 12 12 12 12
21 21 21 21 20 20 20 20 19 19 19 19 18 18 17 17 16 16 15 15 15 15 15 14 14 14 14 14 13 13 13 13 12 12 12 12 12 12 12 12 12 12 12 11
20 20 20 19 19 19 19 19 19 18 18 18 18 17 16 16 15 15 15 14 14 14 14 14 13 13 13 13 13 13 13 12 12 12 12 12 12 12 12 11 11 11 11 11
19 19 19 19 18 18 18 18 18 18 18 17 17 16 16 15 15 14 14 14 13 13 13 13 13 12 12 12 12 12 12 12 12 12 12 11 11 11 11 11 11 11 11 11
18 18 18 18 18 17 17 17 17 17 17 16 16 16 15 14 14 14 13 13 13 13 12 12 12 12 12 12 12 12 12 12 12 11 11 11 11 11 11 11 11 11 11 10
18 18 17 17 17 17 17 17 17 16 16 16 15 15 14 14 13 13 13 13 13 12 12 12 12 12 12 11 11 11 11 11 11 11 11 11 11 11 11 11 11 10 10 10
17 17 17 16 16 16 16 16 16 16 15 15 14 14 14 13 13 13 13 12 12 12 12 12 12 11 11 11 11 11 11 11 11 11 11 11 10 10 10 10 10 10 10 10
16 16 16 16 16 16 15 15 15 15 14 14 14 13 13 13 13 12 12 12 12 12 12 11 11 11 11 11 11 11 11 11 11 11 11 10 10 10 10 10 10 10 10 9
16 16 16 16 15 15 15 15 15 14 14 14 13 13 13 12 12 12 12 12 12 12 11 11 11 11 11 11 11 11 11 11 11 11 10 10 10 10 10 10 9 9 9 9
16 15 15 15 15 15 14 14 14 14 13 13 13 13 12 12 12 12 12 12 11 11 11 11 11 11 11 11 11 11 11 11 11 10 10 10 10 10 9 9 9 9 9 8
15 15 14 14 14 14 14 13 13 13 13 13 13 12 12 12 12 12 12 12 11 11 11 11 11 11 11 11 10 10 10 10 10 10 10 10 9 9 9 9 9 8 8 8
14 14 14 14 13 13 13 13 13 13 13 13 12 12 12 12 12 12 12 11 11 11 11 11 11 11 10 10 10 10 10 10 10 10 10 9 9 9 9 9 8 8 8 8
13 13 13 13 13 13 13 13 12 12 12 12 12 12 12 12 12 12 11 11 11 11 11 10 10 10 10 10 10 10 10 10 10 9 9 9 9 9 8 8 8 8 8 8
13 13 13 13 13 13 13 13 12 12 12 12 12 12 12 12 11 11 11 11 11 11 10 10 10 10 10 10 9 9 9 9 9 9 9 9 8 8 8 8 8 8 7 7
13 13 13 13 13 13 13 13 12 12 12 12 12 12 12 11 11 11 11 11 10 10 10 10 10 10 10 10 9 9 9 9 9 9 9 8 8 8 8 8 7 7 7 7
Wind_Speed
14 15 14 12 12 11 12 11 11 9 5 5 3 6 7 7 7 9 9 8 8 7 7 6 6 4 4 3 3 3 3 3 3 3 2 1 1 1 1 0 1 1 1 1
15 16 16 15 14 13 13 12 11 7 4 0 4 7 6 7 7 7 7 7 7 7 7 6 6 5 4 4 3 3 3 2 2 2 2 1 1 1 1 1 1 2 1 2
13 14 16 16 12 11 10 8 8 7 3 2 4 5 5 6 6 5 7 6 6 5 6 6 5 5 4 4 4 3 3 2 2 2 1 1 1 1 1 1 2 2 2 1
12 14 16 10 8 8 8 7 6 2 1 1 3 4 5 6 5 4 5 6 5 5 5 6 6 5 4 4 4 3 3 2 2 2 1 1 1 1 2 2 2 2 2 2
10 13 13 11 8 7 8 5 4 3 1 1 3 3 3 4 5 5 5 5 5 4 4 4 5 5 4 3 3 3 2 2 2 1 1 1 1 1 1 2 2 2 2 2
11 13 13 7 6 5 6 4 4 4 3 2 1 2 1 4 5 5 4 4 4 4 4 4 4 4 4 3 3 2 2 2 2 2 2 2 1 1 2 2 2 2 2 2
14 14 10 6 5 4 5 1 5 4 4 4 3 3 3 4 5 5 4 4 4 4 4 3 3 3 3 3 2 1 1 1 1 1 1 1 1 2 2 2 3 3 3 3
11 13 8 5 4 2 3 5 5 5 5 5 5 5 5 5 5 5 4 4 4 4 4 3 3 2 2 2 1 1 1 0 0 1 2 2 1 2 2 2 3 4 4 4
5 3 2 4 4 4 4 4 4 4 4 4 4 4 4 4 4 4 4 4 3 4 4 3 3 2 2 2 2 1 0 0 1 1 2 2 2 2 2 2 3 4 3 3
2 2 1 3 4 5 5 4 3 3 2 2 2 3 4 5 5 4 4 4 3 3 3 3 3 2 2 2 1 1 0 0 1 2 2 2 2 2 2 2 3 3 3 3
3 2 1 2 3 4 4 5 4 4 3 3 2 3 4 4 4 4 4 3 3 3 3 2 2 2 2 2 1 0 1 1 2 1 1 2 2 2 2 1 2 2 3 3
3 1 1 2 4 4 4 3 3 3 3 4 3 3 5 4 4 4 3 3 3 3 2 2 2 2 2 2 1 0 1 1 1 2 1 2 1 2 2 1 1 1 1 3
2 2 2 2 2 3 2 2 2 3 3 3 4 3 4 4 4 3 3 3 3 2 2 2 2 2 2 2 1 0 1 1 2 2 2 2 2 2 2 2 2 2 3 3
4 3 2 2 2 3 2 1 1 2 2 3 3 3 4 4 3 3 3 2 2 2 3 3 3 3 2 2 1 1 1 1 2 2 2 2 2 2 2 2 2 2 2 2
3 2 1 2 2 3 2 1 1 1 2 3 3 3 4 3 3 3 3 2 3 3 3 3 3 3 3 2 1 2 2 1 2 2 2 2 3 3 3 3 2 3 3 2
2 1 1 0 1 1 1 1 0 0 1 2 3 3 3 4 4 4 3 3 2 2 2 3 3 3 3 3 2 2 1 1 2 2 2 2 3 3 3 3 3 3 3 2
3 2 2 1 1 1 1 1 1 1 1 2 3 3 4 4 4 3 3 3 3 3 2 2 2 3 2 3 3 3 2 1 1 2 2 2 3 3 3 3 3 3 2 2
4 3 3 2 2 2 1 1 0 1 2 3 4 4 3 3 3 3 2 2 3 2 2 2 3 3 2 3 3 3 3 2 2 2 2 3 3 3 4 3 3 3 2 2
3 2 2 2 2 2 1 0 1 1 3 4 4 4 3 3 3 2 2 1 1 1 1 2 2 3 3 3 3 3 3 3 3 2 2 3 3 3 3 3 4 4 3 3
5 4 4 3 2 1 1 1 1 3 3 4 4 3 3 2 3 2 2 1 0 1 1 1 1 2 2 2 3 3 4 4 3 2 2 3 3 3 3 4 4 4 4 4
4 4 4 3 2 2 1 1 3 3 3 4 4 3 3 3 3 2 2 1 1 1 0 0 1 1 2 3 3 3 3 3 3 3 3 3 3 3 4 4 4 4 4 4
3 2 2 2 3 2 2 2 3 3 3 3 4 3 3 3 3 2 2 1 1 1 0 1 1 2 4 5 4 4 3 4 3 3 3 3 3 3 3 4 4 3 3 3
2 1 1 1 2 2 2 2 3 3 2 2 3 3 2 2 2 2 2 1 1 1 1 1 1 2 4 4 4 4 4 4 4 4 3 3 3 3 3 4 4 4 3 3
1 2 2 1 2 2 2 2 2 2 2 2 2 2 2 2 1 1 2 3 2 0 0 1 2 1 4 4 4 3 3 3 3 4 4 3 3 3 3 3 4 4 4 5
2 2 2 2 2 2 2 2 2 2 2 2 2 1 1 1 1 1 2 2 3 2 1 2 3 3 4 3 3 4 4 4 4 4 4 4 4 4 4 4 4 4 4 4
2 2 2 1 1 1 1 2 2 2 2 2 1 1 1 1 1 1 1 2 2 1 1 1 1 2 3 3 3 3 4 4 3 4 4 4 5 4 4 4 6 5 4 4
3 2 2 2 1 1 1 0 1 1 1 1 1 1 1 1 1 1 1 1 1 1 1 1 2 2 3 3 3 3 3 3 3 4 4 4 4 4 4 4 4 4 4 4
Wind_Direction
273 273 270 263 255 248 252 260 268 276 260 209 184 151 138 134 140 146 148 149 147 147 142 139 137 137 142 139 127 122 127 136 133 129 129 126 135 160 169 181 275 292 297 295
274 272 274 268 262 259 260 260 262 265 278 86 108 115 131 138 143 151 150 151 147 149 144 146 151 151 147 145 136 130 137 149 136 141 151 161 179 186 190 209 257 264 262 282
272 273 272 261 261 262 268 275 274 276 260 194 136 132 138 137 145 154 149 143 144 154 157 154 154 154 161 157 154 156 158 156 154 155 169 200 245 239 237 237 240 251 255 263
267 271 265 269 281 276 279 289 294 285 261 251 138 136 134 126 130 139 144 146 145 153 154 160 161 164 161 159 154 155 165 174 182 187 194 205 255 273 272 271 266 266 262 246
266 262 261 264 273 274 272 277 313 329 356 43 105 114 135 114 112 121 128 140 147 155 150 146 152 157 154 153 155 163 173 179 179 185 193 219 264 278 283 278 265 257 261 251
256 263 264 268 283 297 273 254 10 32 29 24 121 214 131 92 99 112 127 136 146 149 141 133 143 145 148 155 157 170 183 197 192 194 210 227 252 279 284 279 280 271 260 250
249 259 263 298 315 303 266 312 24 36 40 38 41 47 95 93 103 117 122 120 125 122 115 112 109 131 151 153 168 180 181 198 189 191 222 228 232 247 264 279 276 269 263 253
248 253 254 344 334 347 45 37 36 40 50 65 75 86 88 90 90 101 105 107 107 102 100 97 102 118 131 137 134 111 132 172 192 228 260 256 239 249 258 274 275 263 257 255
244 245 27 7 23 50 41 33 38 39 39 68 89 94 87 98 98 96 93 88 91 92 97 97 89 79 103 96 89 92 113 209 249 251 257 250 246 245 250 259 271 275 268 259
275 189 118 47 24 30 31 35 39 43 27 51 96 104 96 96 93 91 90 90 90 96 93 96 96 85 81 89 98 113 120 261 267 250 251 252 250 242 254 268 279 286 290 287
249 237 282 15 5 19 28 34 28 23 28 36 65 95 101 102 92 84 85 82 89 93 87 85 93 94 91 83 81 139 209 260 273 275 281 265 262 265 260 279 261 271 289 293
269 292 289 37 21 16 31 36 22 25 33 42 49 78 101 98 91 86 81 72 71 76 72 61 72 93 106 103 101 6 277 293 291 279 285 290 288 319 333 293 302 341 321 302
330 335 37 62 33 27 38 40 31 35 49 63 64 75 93 96 92 84 76 75 72 62 54 53 56 73 92 100 109 209 276 297 298 302 301 296 300 297 305 328 0 332 297 291
9 26 41 42 21 16 23 50 62 67 72 85 85 87 93 98 100 96 86 84 78 69 51 45 55 46 41 77 91 290 298 314 316 310 308 309 311 311 312 309 310 318 306 267
323 346 359 25 26 18 23 46 74 101 93 88 94 91 86 94 97 94 88 78 75 68 51 42 38 31 21 30 18 311 317 351 343 332 325 325 323 316 314 323 324 322 325 318
291 329 8 360 53 27 7 38 34 96 114 100 86 89 95 101 102 98 89 83 82 65 52 47 37 26 17 14 0 309 310 16 351 327 333 327 320 321 325 324 324 319 320 338
235 230 241 247 227 284 304 304 263 230 154 121 109 106 110 107 103 97 94 85 79 73 57 45 39 26 6 359 342 327 325 330 332 321 324 327 319 319 321 315 317 322 329 329
236 224 235 239 232 238 249 292 30 85 123 116 114 114 114 111 111 108 102 95 90 73 45 45 36 1 340 351 350 333 312 300 300 308 311 311 312 309 312 317 324 331 331 312
232 221 232 242 255 246 223 231 192 139 130 125 128 127 127 131 129 125 113 101 118 122 69 50 24 332 346 18 6 336 318 309 307 302 306 306 303 316 321 322 324 328 328 322
213 217 224 230 233 247 224 178 135 122 130 138 142 144 146 145 145 144 144 148 117 22 65 61 335 321 344 20 354 319 317 319 312 306 308 304 303 308 311 311 314 322 327 327
219 218 217 209 207 204 198 164 130 131 140 146 149 159 164 157 151 152 190 185 109 77 120 202 272 328 347 341 312 307 312 323 328 317 305 308 311 311 313 314 313 320 326 333
229 227 218 188 186 176 159 155 138 135 145 151 153 159 169 176 179 173 167 149 131 98 306 289 318 28 354 320 306 318 321 319 322 328 328 325 318 311 311 311 309 310 318 324
187 186 170 154 158 133 130 143 137 143 157 156 156 169 190 213 211 191 168 128 143 204 275 321 52 37 322 302 313 319 318 323 329 330 330 330 321 313 308 309 312 309 305 306
134 125 111 97 126 130 132 134 134 147 153 148 164 170 192 204 192 148 119 115 105 163 277 109 149 257 287 298 310 313 310 313 317 322 328 325 318 311 308 308 305 305 303 302
128 130 137 138 158 160 148 151 157 159 168 170 171 177 212 193 158 124 126 140 154 200 237 202 214 253 283 306 315 316 316 316 317 318 316 312 309 311 317 316 317 319 319 319
137 150 125 111 105 158 183 175 179 179 176 180 193 191 154 108 115 140 162 162 163 218 272 280 281 279 300 305 304 302 303 303 303 300 303 305 308 311 314 320 318 315 319 327
137 132 146 160 166 185 177 190 197 188 168 182 193 161 158 166 175 173 186 184 195 215 268 296 296 298 302 301 303 304 303 304 300 301 303 302 303 304 309 319 325 328 327 330
Height
1458 1452 1449 1450 1451 1451 1455 1457 1465 1463 1462 1460 1459 1462 1467 1471 1475 1479 1483 1487 1490 1493 1495 1497 1500 1502 1503 1504 1505 1506 1507 1507 1508 1508 1509 1509 1509 1509 1509 1508 1508 1508 1507 1506
1462 1452 1449 1450 1448 1448 1449 1449 1452 1455 1460 1456 1458 1463 1467 1471 1475 1479 1482 1486 1489 1492 1494 1496 1498 1500 1502 1503 1504 1504 1505 1506 1506 1507 1507 1507 1507 1507 1507 1506 1506 1506 1505 1505
1469 1457 1454 1459 1449 1448 1449 1446 1449 1458 1458 1456 1460 1464 1468 1471 1475 1479 1482 1485 1487 1490 1493 1495 1497 1498 1500 1501 1502 1503 1503 1504 1505 1505 1505 1505 1506 1506 1505 1505 1504 1504 1503 1502
1468 1468 1478 1456 1441 1442 1446 1447 1447 1451 1455 1456 1460 1464 1468 1471 1474 1478 1481 1484 1487 1489 1491 1493 1495 1497 1499 1500 1500 1501 1501 1502 1502 1503 1503 1503 1503 1503 1503 1503 1502 1502 1501 1501
1470 1472 1466 1452 1444 1445 1449 1453 1450 1452 1454 1458 1461 1465 1469 1471 1474 1477 1480 1483 1486 1488 1490 1492 1494 1495 1497 1498 1498 1499 1499 1499 1500 1500 1500 1500 1500 1500 1500 1500 1499 1499 1499 1498
1469 1475 1475 1458 1445 1444 1448 1459 1454 1455 1458 1460 1462 1467 1471 1472 1474 1477 1480 1482 1485 1487 1488 1490 1492 1494 1495 1496 1496 1497 1497 1497 1498 1498 1498 1498 1498 1497 1497 1497 1496 1496 1496 1495
1467 1470 1462 1452 1446 1448 1463 1466 1458 1459 1461 1464 1466 1469 1473 1473 1475 1477 1479 1482 1484 1486 1487 1489 1491 1492 1493 1494 1494 1495 1495 1496 1496 1495 1495 1495 1495 1495 1494 1494 1494 1493 1493 1492
1464 1470 1470 1454 1451 1458 1463 1461 1461 1463 1465 1467 1469 1471 1473 1474 1476 1478 1480 1482 1483 1485 1486 1488 1489 1490 1491 1492 1492 1493 1493 1493 1493 1493 1493 1493 1493 1492 1492 1491 1491 1490 1489 1489
1459 1464 1461 1459 1460 1462 1462 1463 1464 1466 1467 1469 1471 1472 1474 1475 1477 1479 1480 1482 1483 1484 1485 1486 1488 1489 1489 1490 1490 1490 1491 1491 1491 1491 1491 1491 1490 1490 1489 1489 1488 1487 1486 1486
1457 1458 1460 1462 1462 1463 1465 1465 1466 1468 1469 1470 1471 1473 1474 1476 1477 1479 1480 1481 1483 1484 1484 1485 1486 1487 1487 1487 1488 1488 1488 1488 1488 1488 1488 1488 1488 1487 1487 1486 1485 1485 1484 1483
1459 1460 1461 1463 1464 1465 1466 1467 1468 1469 1470 1471 1472 1473 1475 1476 1478 1479 1480 1481 1482 1483 1483 1484 1484 1485 1485 1485 1485 1486 1485 1486 1486 1486 1486 1485 1485 1485 1484 1483 1483 1482 1481 1481
1460 1462 1462 1464 1465 1466 1467 1468 1470 1470 1471 1472 1473 1474 1474 1476 1478 1479 1480 1481 1482 1482 1483 1483 1483 1483 1483 1483 1483 1484 1483 1483 1484 1484 1483 1483 1482 1482 1481 1481 1480 1479 1479 1478
1461 1461 1463 1464 1466 1467 1468 1469 1470 1471 1471 1472 1473 1474 1474 1476 1477 1478 1480 1480 1481 1481 1482 1482 1482 1481 1481 1481 1482 1482 1482 1482 1481 1481 1481 1480 1480 1479 1478 1478 1477 1476 1475 1475
1463 1463 1465 1466 1467 1468 1469 1470 1470 1471 1471 1472 1473 1474 1474 1475 1476 1477 1478 1479 1480 1480 1481 1481 1481 1480 1480 1480 1480 1480 1480 1480 1479 1479 1479 1478 1478 1477 1476 1474 1473 1472 1472 1471
1465 1465 1466 1467 1467 1468 1469 1469 1470 1470 1471 1472 1473 1474 1474 1475 1475 1476 1478 1478 1479 1479 1479 1479 1479 1479 1479 1479 1479 1479 1479 1479 1478 1477 1477 1476 1476 1475 1474 1473 1471 1470 1469 1468
1464 1465 1466 1467 1468 1469 1470 1470 1471 1471 1471 1472 1473 1474 1474 1475 1475 1476 1477 1477 1478 1478 1478 1478 1478 1478 1478 1478 1477 1478 1478 1477 1477 1476 1475 1475 1474 1473 1472 1471 1469 1468 1467 1466
1464 1466 1467 1468 1469 1469 1469 1470 1470 1470 1471 1472 1473 1473 1474 1474 1475 1476 1476 1477 1477 1477 1477 1477 1477 1477 1477 1477 1477 1477 1477 1476 1476 1475 1474 1474 1473 1472 1470 1469 1468 1467 1465 1464
1464 1466 1467 1468 1468 1468 1469 1469 1470 1470 1471 1471 1472 1473 1474 1474 1475 1475 1476 1477 1477 1477 1477 1477 1477 1476 1476 1476 1476 1476 1476 1475 1474 1474 1473 1472 1471 1470 1469 1467 1466 1465 1464 1462
1464 1465 1466 1467 1468 1468 1468 1468 1469 1469 1469 1470 1471 1472 1473 1474 1475 1475 1476 1476 1476 1476 1476 1476 1476 1475 1475 1475 1474 1474 1474 1474 1473 1472 1472 1471 1470 1469 1467 1466 1465 1463 1462 1460
1462 1464 1465 1466 1466 1467 1467 1467 1467 1467 1468 1470 1471 1472 1473 1474 1475 1475 1475 1476 1476 1476 1476 1476 1475 1475 1475 1474 1473 1474 1473 1472 1471 1471 1470 1469 1468 1467 1466 1465 1463 1461 1460 1458
1461 1462 1463 1464 1465 1466 1466 1466 1466 1467 1468 1470 1471 1472 1473 1473 1474 1474 1474 1475 1475 1475 1475 1475 1474 1474 1474 1473 1472 1472 1472 1471 1470 1469 1468 1467 1466 1465 1464 1463 1461 1459 1458 1456
1459 1460 1461 1463 1464 1464 1465 1465 1466 1467 1468 1470 1471 1471 1472 1473 1473 1473 1474 1474 1474 1474 1474 1474 1474 1473 1472 1472 1472 1471 1470 1469 1468 1467 1466 1465 1464 1462 1461 1460 1458 1457 1455 1453
1458 1459 1460 1462 1463 1463 1464 1465 1466 1467 1468 1469 1470 1470 1471 1471 1472 1472 1472 1473 1472 1472 1472 1472 1472 1472 1471 1471 1470 1469 1468 1467 1466 1465 1464 1463 1461 1460 1458 1457 1455 1453 1452 1450
1458 1459 1460 1461 1462 1463 1463 1464 1466 1467 1468 1468 1469 1469 1470 1470 1470 1471 1470 1470 1471 1471 1471 1471 1470 1470 1469 1469 1468 1467 1466 1465 1464 1463 1462 1461 1460 1458 1456 1455 1453 1451 1449 1448
1457 1459 1460 1461 1462 1463 1463 1464 1465 1466 1466 1467 1468 1468 1469 1469 1469 1469 1469 1469 1469 1469 1469 1469 1469 1468 1468 1467 1466 1465 1465 1463 1462 1461 1459 1458 1457 1456 1454 1453 1451 1448 1447 1445
1457 1459 1460 1460 1461 1462 1462 1463 1464 1465 1465 1466 1466 1467 1467 1467 1467 1468 1468 1468 1468 1468 1468 1468 1467 1467 1466 1466 1464 1463 1462 1461 1460 1458 1457 1455 1454 1452 1451 1450 1448 1446 1444 1443
1457 1459 1459 1460 1461 1462 1462 1463 1463 1464 1464 1465 1465 1466 1466 1466 1466 1466 1467 1467 1467 1467 1466 1466 1466 1465 1465 1464 1463 1461 1460 1459 1457 1456 1454 1452 1451 1450 1448 1446 1445 1443 1441 1440